Flag for Malaysia Weather past 2 weeks in Langkawi, Malaysia

Now
86 °F

Broken clouds.


Feels Like: 99 °F
Forecast: 81 / 88 °F
Wind: 5 mph from Southeast

Location: Langkawi


UV Index: 7 (High)

Visibility: N/A


Pressure: 29.83 "Hg

Humidity: 79%

Dew point: 79 °F

Location of LangkawiLocation

Historic Weather in Langkawi

°F

Langkawi temperature yesterday

Maximum temperature yesterday: 90 °F (at 11:00 AM)
Minimum temperature yesterday: 81 °F (at 2:00 AM)
Average temperature yesterday: 85 °F

Past Weeks' High & Low Weather Summary

 TemperatureHumidityPressure
High91 °F (Apr 6, 1:00 PM)100% (Apr 18, 3:00 AM)29.95 "Hg (Apr 18, 3:00 AM)
Low77 °F (Apr 8, 1:00 PM)63% (Apr 6, 1:00 PM)29.71 "Hg (Apr 12, 6:00 PM)
Average84 °F81%29.82 "Hg
* Reported Apr 5 10:00 AM — Apr 20 10:00 AM, Langkawi, Weather by CustomWeather, © 2014

Note: Actual official high and low records may vary slightly from our data, if they occured in-between our weather recording intervals... More about our weather records

Advertising

Historic Weather Conditions — Data for Previous 24 hours

 ConditionsComfort  
Time TempWeatherWind HumidityBarometerVisibility
10:00 AM
Apr 20
86 °FBroken clouds.2 mph79%29.83 "HgN/A
9:00 AM82 °FPartly sunny.2 mph89%29.80 "HgN/A
8:00 AM81 °FBroken clouds.2 mph89%29.77 "HgN/A
7:00 AM79 °FPartly cloudy.1 mph94%29.77 "HgN/A
6:00 AM79 °FPartly cloudy.2 mph94%29.77 "HgN/A
5:00 AM79 °FPassing clouds.1 mph94%29.74 "HgN/A
4:00 AM81 °FPartly cloudy.3 mph89%29.74 "HgN/A
3:00 AM81 °FPartly cloudy.5 mph84%29.74 "HgN/A
2:00 AM81 °FPartly cloudy.7 mph84%29.80 "HgN/A
1:00 AM82 °FPartly cloudy.5 mph84%29.80 "HgN/A
12:00 AM84 °FPartly cloudy.2 mph79%29.80 "HgN/A
11:00 PM
Apr 19
84 °FPartly cloudy.5 mph79%29.80 "HgN/A
10:00 PM84 °FPartly cloudy.2 mph84%29.77 "HgN/A
9:00 PM86 °FPartly cloudy.3 mph79%29.74 "HgN/A
8:00 PM86 °FPassing clouds.3 mph79%29.74 "HgN/A
7:00 PM88 °FPartly sunny.3 mph70%29.71 "HgN/A
6:00 PM88 °FPartly sunny.5 mph70%29.71 "HgN/A
5:00 PM88 °FPartly sunny.6 mph75%29.71 "HgN/A
4:00 PM90 °FBroken clouds.5 mph71%29.74 "HgN/A
3:00 PM88 °FPartly sunny.6 mph70%29.77 "HgN/A
2:00 PM90 °FBroken clouds.6 mph71%29.77 "HgN/A
1:00 PM88 °FBroken clouds.6 mph75%29.80 "HgN/A
12:00 PM88 °FBroken clouds.6 mph70%29.80 "HgN/A
11:00 AM90 °FBroken clouds.3 mph67%29.83 "HgN/A
Weather by CustomWeather, © 2014

See weather overview